Grafton, ND

2:36 PM CDT on July 28, 2017 (GMT -0500)
Grafton Municipal

Weather History for KGAF - February, 2014

Change the Weather History Date:

Friday, February 14, 2014

  Actual Average Record
Temperature  
Mean Temperature -2 °F -  
Max Temperature 6 °F 20 °F 41 °F (1984)
Min Temperature -11 °F -1 °F -24 °F (1974)
Degree Days  
Heating Degree Days 68    
Moisture  
Dew Point -9 °F    
Average Humidity 71    
Maximum Humidity 92    
Minimum Humidity 56    
Precipitation  
Precipitation 0.00 in - - ()
Sea Level Pressure  
Sea Level Pressure 29.99 in    
Wind  
Wind Speed 10 mph (WNW)    
Max Wind Speed 21 mph    
Max Gust Speed 18 mph    
Visibility 10 miles    
Events      
Averages and records for this station are not official NWS values.
T = Trace of Precipitation, MM = Missing Value Source: NWS Daily Summary

Daily Weather History Graph

Daily Weather History Graph

Search for Another Location

Airport or City:

Trip Planner

Search our weather history database for the weather conditions in past years. The results will help you decide how hot, cold, wet, or windy it might be!

Date:

Astronomy

Feb. 14, 2014 Rise Set
Actual Time 7:38 AM CST 5:49 PM CST
Civil Twilight 7:05 AM CST 6:22 PM CST
Nautical Twilight 6:29 AM CST 6:58 PM CST
Astronomical Twilight 5:53 AM CST 7:35 PM CST
Moon 5:59 PM CST (2/14) 7:03 AM CST (2/14)
Length of Visible Light 11h 16m
Length of Day
10h 11m
Full, 100% of the Moon is Illuminated
Feb 14
Full
Feb 14
Full
Feb 22
Last Quarter
Mar 1
New
Mar 8
First Quarter

Hourly Weather History & Observations

Time (CST) Temp. Windchill Dew Point Humidity Pressure Visibility Wind Dir Wind Speed Gust Speed Precip Events Conditions
12:15 AM -7.6 °F -26.6 °F -14.8 °F 71% 29.92 in 10.0 mi NNW 11.5 mph - N/A   Clear
12:35 AM -7.6 °F -25.7 °F -14.8 °F 71% 29.93 in 10.0 mi NNW 10.4 mph - N/A   Clear
12:55 AM -9.4 °F -25.6 °F -16.6 °F 71% 29.94 in 10.0 mi NNW 8.1 mph - N/A   Clear
1:15 AM -9.4 °F -29.8 °F -16.6 °F 71% 29.94 in 10.0 mi NNW 12.7 mph - N/A   Clear
1:35 AM -9.4 °F -30.6 °F -16.6 °F 71% 29.95 in 10.0 mi NNW 13.8 mph - N/A   Clear
1:55 AM -9.4 °F -28.9 °F -16.6 °F 71% 29.95 in 10.0 mi NNW 11.5 mph - N/A   Clear
2:15 AM -9.4 °F -28.9 °F -16.6 °F 71% 29.95 in 10.0 mi NNW 11.5 mph - N/A   Clear
2:35 AM -7.6 °F -26.6 °F -16.6 °F 65% 29.96 in 10.0 mi NNW 11.5 mph - N/A   Clear
2:55 AM -7.6 °F -27.5 °F -16.6 °F 65% 29.97 in 10.0 mi NNW 12.7 mph - N/A   Clear
3:15 AM -7.6 °F -26.6 °F -16.6 °F 65% 29.97 in 10.0 mi NNW 11.5 mph - N/A   Clear
3:35 AM -9.4 °F -29.8 °F -16.6 °F 71% 29.97 in 10.0 mi NNW 12.7 mph - N/A   Clear
3:55 AM -9.4 °F -29.8 °F -16.6 °F 71% 29.98 in 10.0 mi NNW 12.7 mph - N/A   Clear
4:15 AM -9.4 °F -29.8 °F -16.6 °F 71% 29.99 in 10.0 mi NNW 12.7 mph - N/A   Clear
4:35 AM -9.4 °F -28.9 °F -16.6 °F 71% 30.00 in 10.0 mi NNW 11.5 mph - N/A   Clear
4:55 AM -9.4 °F -28.9 °F -16.6 °F 71% 30.01 in 10.0 mi North 11.5 mph - N/A   Clear
5:15 AM -9.4 °F -28.9 °F -18.4 °F 65% 30.02 in 10.0 mi NNW 11.5 mph - N/A   Clear
5:35 AM -9.4 °F -26.8 °F -18.4 °F 65% 30.02 in 10.0 mi NNW 9.2 mph - N/A   Clear
5:55 AM -11.2 °F -27.8 °F -18.4 °F 70% 30.02 in 10.0 mi NNW 8.1 mph - N/A   Scattered Clouds
6:15 AM -9.4 °F -24.3 °F -18.4 °F 65% 30.03 in 10.0 mi NNW 6.9 mph - N/A   Overcast
6:35 AM -9.4 °F -24.3 °F -16.6 °F 71% 30.03 in 10.0 mi NNW 6.9 mph - N/A   Overcast
6:55 AM -9.4 °F -25.6 °F -16.6 °F 71% 30.05 in 10.0 mi NNW 8.1 mph - N/A   Overcast
7:15 AM -7.6 °F -22.1 °F -16.6 °F 65% 30.06 in 10.0 mi NNW 6.9 mph - N/A   Overcast
7:35 AM -7.6 °F -23.4 °F -14.8 °F 71% 30.08 in 10.0 mi NW 8.1 mph - N/A   Overcast
7:55 AM -7.6 °F -22.1 °F -14.8 °F 71% 30.07 in 10.0 mi NNW 6.9 mph - N/A   Overcast
8:15 AM -7.6 °F -23.4 °F -14.8 °F 71% 30.08 in 10.0 mi NNW 8.1 mph - N/A   Overcast
8:35 AM -5.8 °F -21.2 °F -13.0 °F 71% 30.09 in 10.0 mi NNW 8.1 mph - N/A   Overcast
8:55 AM -4.0 °F -19.0 °F -13.0 °F 65% 30.09 in 10.0 mi North 8.1 mph - N/A   Overcast
9:15 AM -4.0 °F -19.0 °F -13.0 °F 65% 30.10 in 10.0 mi North 8.1 mph - N/A   Overcast
9:35 AM -4.0 °F -17.8 °F -13.0 °F 65% 30.10 in 10.0 mi NNW 6.9 mph - N/A   Overcast
9:55 AM -2.2 °F -14.2 °F -11.2 °F 66% 30.10 in 10.0 mi North 5.8 mph - N/A   Overcast
10:15 AM -0.4 °F -14.7 °F -11.2 °F 60% 30.10 in 10.0 mi North 8.1 mph - N/A   Overcast
10:35 AM -0.4 °F -13.4 °F -9.4 °F 66% 30.09 in 10.0 mi NNW 6.9 mph - N/A   Overcast
10:55 AM -0.4 °F -13.4 °F -9.4 °F 66% 30.09 in 10.0 mi North 6.9 mph - N/A   Overcast
11:15 AM -0.4 °F -12.0 °F -9.4 °F 66% 30.09 in 10.0 mi North 5.8 mph - N/A   Overcast
11:35 AM -0.4 °F -12.0 °F -9.4 °F 66% 30.09 in 10.0 mi NW 5.8 mph - N/A   Overcast
11:55 AM -0.4 °F -8.3 °F -7.6 °F 72% 30.09 in 10.0 mi NNW 3.5 mph - N/A   Overcast
12:15 PM 1.4 °F -6.2 °F -7.6 °F 66% 30.08 in 10.0 mi NW 3.5 mph - N/A   Overcast
12:35 PM 1.4 °F - -7.6 °F 66% 30.08 in 10.0 mi Calm Calm - N/A   Overcast
12:55 PM 3.2 °F - -7.6 °F 61% 30.08 in 10.0 mi Calm Calm - N/A   Overcast
1:15 PM 3.2 °F - -7.6 °F 61% 30.07 in 10.0 mi Calm Calm - N/A   Overcast
1:35 PM 3.2 °F -7.8 °F -7.6 °F 61% 30.06 in 10.0 mi SSW 5.8 mph - N/A   Overcast
1:55 PM 3.2 °F -7.8 °F -7.6 °F 61% 30.04 in 10.0 mi SSW 5.8 mph - N/A   Overcast
2:15 PM 5.0 °F -4.1 °F -7.6 °F 56% 30.03 in 10.0 mi South 4.6 mph - N/A   Overcast
2:35 PM 5.0 °F -4.1 °F -4.0 °F 66% 30.03 in 10.0 mi South 4.6 mph - N/A   Overcast
2:55 PM 5.0 °F -6.9 °F -4.0 °F 66% 30.03 in 10.0 mi South 6.9 mph - N/A   Overcast
3:15 PM 6.8 °F -7.8 °F -4.0 °F 61% 30.02 in 10.0 mi SSW 10.4 mph - N/A   Overcast
3:35 PM 6.8 °F -8.6 °F -2.2 °F 67% 30.01 in 10.0 mi South 11.5 mph - N/A   Mostly Cloudy
3:55 PM 6.8 °F -7.8 °F -2.2 °F 67% 30.00 in 10.0 mi South 10.4 mph - N/A   Partly Cloudy
4:15 PM 6.8 °F -7.8 °F -2.2 °F 67% 30.00 in 10.0 mi South 10.4 mph - N/A   Partly Cloudy
4:35 PM 6.8 °F -9.3 °F -2.2 °F 67% 29.98 in 10.0 mi SSE 12.7 mph - N/A   Clear
4:55 PM 6.8 °F -8.6 °F -0.4 °F 72% 29.98 in 10.0 mi South 11.5 mph - N/A   Clear
5:15 PM 5.0 °F -10.8 °F -0.4 °F 78% 29.97 in 10.0 mi SSE 11.5 mph - N/A   Clear
5:35 PM 5.0 °F -10.8 °F -2.2 °F 72% 29.96 in 10.0 mi SSE 11.5 mph - N/A   Clear
5:55 PM 5.0 °F -10.8 °F -2.2 °F 72% 29.96 in 10.0 mi South 11.5 mph - N/A   Clear
6:15 PM 3.2 °F -14.6 °F -2.2 °F 78% 29.95 in 10.0 mi SSE 13.8 mph - N/A   Clear
6:35 PM 1.4 °F -16.1 °F -4.0 °F 78% 29.95 in 10.0 mi SSE 12.7 mph - N/A   Clear
6:55 PM 1.4 °F -16.1 °F -4.0 °F 78% 29.94 in 10.0 mi SSE 12.7 mph - N/A   Clear
7:15 PM 1.4 °F -16.1 °F -4.0 °F 78% 29.94 in 10.0 mi SSE 12.7 mph - N/A   Clear
7:35 PM 1.4 °F -16.9 °F -4.0 °F 78% 29.93 in 10.0 mi SSE 13.8 mph - N/A   Clear
7:55 PM 1.4 °F -16.1 °F -4.0 °F 78% 29.93 in 10.0 mi South 12.7 mph - N/A   Clear
8:15 PM -0.4 °F -19.2 °F -4.0 °F 85% 29.91 in 10.0 mi SSE 13.8 mph - N/A   Clear
8:35 PM -0.4 °F -20.5 °F -4.0 °F 85% 29.89 in 10.0 mi South 16.1 mph - N/A   Clear
8:55 PM -0.4 °F -21.2 °F -4.0 °F 85% 29.88 in 10.0 mi SSE 17.3 mph - N/A   Clear
9:15 PM -0.4 °F -21.7 °F -4.0 °F 85% 29.85 in 10.0 mi SSE 18.4 mph - N/A   Clear
9:35 PM -0.4 °F -21.7 °F -4.0 °F 85% 29.84 in 10.0 mi South 18.4 mph - N/A   Clear
9:55 PM -0.4 °F -22.3 °F -4.0 °F 85% 29.83 in 10.0 mi South 19.6 mph - N/A   Clear
10:15 PM -0.4 °F -20.5 °F -4.0 °F 85% 29.82 in 10.0 mi South 16.1 mph - N/A   Clear
10:35 PM -0.4 °F -22.8 °F -4.0 °F 85% 29.80 in 10.0 mi South 20.7 mph - N/A   Clear
10:55 PM -0.4 °F -22.3 °F -4.0 °F 85% 29.79 in 10.0 mi South 19.6 mph - N/A   Clear
11:15 PM -0.4 °F -19.9 °F -4.0 °F 85% 29.80 in 10.0 mi South 15.0 mph 18.4 mph N/A   Clear
11:35 PM -0.4 °F -19.2 °F -2.2 °F 92% 29.79 in 10.0 mi South 13.8 mph - N/A   Clear
11:55 PM 1.4 °F -17.6 °F -2.2 °F 85% 29.79 in 10.0 mi South 15.0 mph - N/A   Partly Cloudy